, FL

(GMT )
Crestview

Weather History for KEGI - October, 2011

Change the Weather History Date:

Saturday, October 1, 2011

  Actual Average Record
Temperature  
Mean Temperature 61 °F -  
Max Temperature 76 °F - - ()
Min Temperature 46 °F - - ()
Degree Days  
Heating Degree Days 4    
Growing Degree Days 11 (Base 50)    
Moisture  
Dew Point 43 °F    
Average Humidity 50    
Maximum Humidity 90    
Minimum Humidity 29    
Precipitation  
Precipitation 0.00 in - - ()
Sea Level Pressure  
Sea Level Pressure 30.05 in    
Wind  
Wind Speed 8 mph (NNW)    
Max Wind Speed 16 mph    
Max Gust Speed 21 mph    
Visibility 10 miles    
Events      
T = Trace of Precipitation, MM = Missing Value Source: NWS Daily Summary

Daily Weather History Graph

Daily Weather History Graph

Search for Another Location

Airport or City:

Trip Planner

Search our weather history database for the weather conditions in past years. The results will help you decide how hot, cold, wet, or windy it might be!

Date:

Astronomy

Oct. 01, 2011 Rise Set
Actual Time 6:39 AM CDT 6:31 PM CDT
Civil Twilight 6:15 AM CDT 6:55 PM CDT
Nautical Twilight 5:47 AM CDT 7:23 PM CDT
Astronomical Twilight 5:19 AM CDT 7:51 PM CDT
Moon 11:22 AM CDT (10/1) 9:51 PM CDT (10/1)
Length of Visible Light 12h 40m
Length of Day
11h 52m
Waxing Crescent, 24% of the Moon is Illuminated
Oct 1
Waxing Crescent
Oct 3
First Quarter
Oct 11
Full
Oct 19
Last Quarter
Oct 26
New

Hourly Weather History & Observations

Time (CDT) Temp. Windchill Dew Point Humidity Pressure Visibility Wind Dir Wind Speed Gust Speed Precip Events Conditions
4:55 AM 50.7 °F - 45.5 °F 82% 29.99 in 10.0 mi North 4.6 mph - N/A   Clear
5:55 AM 47.8 °F - 44.6 °F 89% 30.01 in 10.0 mi NNW 4.6 mph - N/A   Clear
6:55 AM 46.0 °F 43.1 °F 43.3 °F 90% 30.03 in 10.0 mi NNW 5.8 mph - N/A   Clear
7:55 AM 54.3 °F - 47.1 °F 77% 30.05 in 10.0 mi North 5.8 mph - N/A   Clear
8:55 AM 61.2 °F - 46.6 °F 59% 30.07 in 10.0 mi North 10.4 mph - N/A   Clear
9:55 AM 66.9 °F - 44.6 °F 45% 30.08 in 10.0 mi North 10.4 mph - N/A   Clear
10:55 AM 71.1 °F - 41.9 °F 35% 30.08 in 10.0 mi North 9.2 mph - N/A   Clear
11:55 AM 73.6 °F - 41.2 °F 31% 30.07 in 10.0 mi North 15.0 mph - N/A   Clear
12:55 PM 74.5 °F - 41.9 °F 31% 30.04 in 10.0 mi NW 11.5 mph - N/A   Clear
1:55 PM 75.4 °F - 43.2 °F 32% 30.02 in 10.0 mi North 12.7 mph 18.4 mph N/A   Clear
2:12 PM 75.2 °F - 42.8 °F 31% 30.01 in 10.0 mi NW 15.0 mph 20.7 mph N/A   Clear
2:55 PM 76.3 °F - 43.3 °F 31% 30.01 in 10.0 mi North 11.5 mph - N/A   Clear
3:55 PM 76.5 °F - 41.5 °F 29% 30.00 in 10.0 mi NNW 13.8 mph - N/A   Clear
4:55 PM 75.4 °F - 41.5 °F 30% 30.01 in 10.0 mi North 16.1 mph - N/A   Clear
5:55 PM 72.5 °F - 42.6 °F 34% 30.01 in 10.0 mi NNW 9.2 mph - N/A   Clear
6:55 PM 66.9 °F - 45.3 °F 46% 30.04 in 10.0 mi NW 5.8 mph - N/A   Clear
7:55 PM 61.9 °F - 45.9 °F 56% 30.06 in 10.0 mi NNW 5.8 mph - N/A   Clear
8:55 PM 61.7 °F - 42.4 °F 49% 30.08 in 10.0 mi NNW 9.2 mph - N/A   Clear
9:55 PM 60.1 °F - 42.3 °F 52% 30.10 in 10.0 mi North 8.1 mph - N/A   Clear
10:55 PM 58.3 °F - 41.9 °F 54% 30.10 in 10.0 mi North 8.1 mph - N/A   Clear
11:55 PM 56.3 °F - 41.9 °F 59% 30.10 in 10.0 mi North 8.1 mph - N/A   Clear